Regional Weather Roundup
Issued by NWS

Home | Current Version | Previous Version | Graphics & Text | Print | Product List | Glossary On
Versions: 1 2 3 4 5 6 7 8 9 10 11 12 13 14 15 16 17 18 19 20 21 22 23 24 25 26 27 28 29 30 31 32 33 34 35 36 37 38 39 40 41 42 43 44 45 46 47 48 49 50
000
ASUS45 KPSR 270100
RWRAZ

ARIZONA HOURLY REGIONAL WEATHER ROUNDUP
NATIONAL WEATHER SERVICE PHOENIX AZ
600 PM MST TUE MAY 26 2015

NOTE: FAIR INDICATES FEW OR NO CLOUDS BELOW 12,000 FEET WITH NO
SIGNIFICANT WEATHER AND/OR OBSTRUCTIONS TO VISIBILITY.

AZZ001>003-036-270200-
NORTHWEST ARIZONA

CITY           SKY/WX    TMP DP  RH WIND       PRES   REMARKS
KINGMAN        PTSUNNY   81  20  10 SW17      29.94S
$$

AZZ004>008-015-016-018-270200-
NORTH CENTRAL ARIZONA

CITY           SKY/WX    TMP DP  RH WIND       PRES   REMARKS
GRAND CANYON   MOSUNNY   67  29  24 SW8       30.11S
PRESCOTT       MOSUNNY   74  30  19 SW10G21   30.05F
FLAGSTAFF      NOT AVBL
PAYSON         PTSUNNY   73  25  16 S8        30.08F
PAGE           PTSUNNY   74  41  30 NW5       29.96S
$$

AZZ009>014-017-270200-
NORTHEAST ARIZONA

CITY           SKY/WX    TMP DP  RH WIND       PRES   REMARKS
WINSLOW        NOT AVBL
SAINT JOHNS    CLOUDY    75  31  19 CALM      30.04S
WINDOW ROCK    MOSUNNY   70  31  23 W10       30.11F
$$

AZZ023-270200-
GREATER PHOENIX AREA

CITY           SKY/WX    TMP DP  RH WIND       PRES   REMARKS
PHOENIX        PTSUNNY   92  34  13 NW3       29.81F
GLENDALE       PTSUNNY   93  37  14 W8        29.83F
DEER VALLEY    CLOUDY    88  34  14 W7        29.84S
SCOTTSDALE     CLOUDY    90  33  13 CALM      29.85F
MESA-FALCON    PTSUNNY   90  36  14 W6        29.83F
MESA-GATEWAY   MOSUNNY   90  37  15 W6        29.85F
CHANDLER       PTSUNNY   91  36  14 SW6       29.82F
$$

AZZ027-028-270200-
SOUTHWEST MARICOPA COUNTY AND PINAL COUNTY

CITY           SKY/WX    TMP DP  RH WIND       PRES   REMARKS
CASA GRANDE    FAIR      91  36  14 N6        29.82S
$$

AZZ503-504-507>509-270200-
SOUTHEAST ARIZONA

CITY           SKY/WX    TMP DP  RH WIND       PRES   REMARKS
TUCSON         SUNNY     91  20   7 W7        29.91S
NOGALES        SUNNY     84  21  10 SW8       30.00S
SIERRA VISTA   SUNNY     82  15   8 W13       30.04S
SAFFORD        MOSUNNY   89  29  11 NW13      29.88F
$$

AZZ020-021-025-026-031-270200-
SOUTHWEST ARIZONA

CITY           SKY/WX    TMP DP  RH WIND       PRES   REMARKS
YUMA           NOT AVBL
$$

CAZ031-033-041-043-047-048-061-270200-
SOUTHERN CALIFORNIA

CITY           SKY/WX    TMP DP  RH WIND       PRES   REMARKS
DOWNTOWN L.A.  PTSUNNY   64  55  72 VRB3      29.96S
L.A. AIRPORT   CLOUDY    62  56  80 W16       29.97F
SAN DIEGO      CLOUDY    65  56  72 NW9       29.99S
BURBANK        PTSUNNY   67  53  61 S10       29.94S
ONTARIO        PTSUNNY   74  52  46 W14       29.93S
RIVERSIDE      MOSUNNY   72  54  53 W10       29.93R
PALM SPRINGS   MOSUNNY   91  45  20 N14G21    29.81F
EL CENTRO NAS  MOSUNNY   93  49  22 E6        29.78F
IMPERIAL       MOSUNNY   92  47  21 SE14      29.76F
BLYTHE         MOSUNNY   93  37  14 S15       29.78F
$$

NVZ020-UTZ003-270200-
SOUTHERN NEVADA-UTAH

CITY           SKY/WX    TMP DP  RH WIND       PRES   REMARKS
LAS VEGAS      NOT AVBL
SALT LAKE CITY CLOUDY    61  48  62 CALM      30.01S
$$

NMZ009-TXZ055-270200-
NEW MEXICO-WEST TEXAS

CITY           SKY/WX    TMP DP  RH WIND       PRES   REMARKS
ALBUQUERQUE    MOSUNNY   75  37  25 SW6       30.05S
EL PASO        MOSUNNY   86  23  10 SW9       29.97S
$$


........................KEY........................
SKY/WX - SKY CONDITION/WEATHER
TMP    - TEMPERATURE IN FAHRENHEIT
DP     - DEW POINT IN FAHRENHEIT
RH     - RELATIVE HUMIDITY IN PERCENT
WIND   - DIRECTION AND SPEED IN MILES PER HOUR (MPH)
VRB    - VARIABLE WIND DIRECTION
PRES   - MEAN SEA LEVEL PRESSURE IN INCHES OF MERCURY
         F - FALLING PRESSURE   R - RISING PRESSURE
         S - STEADY PRESSURE
VSB    - VISIBILITY IN MILES
HX     - HEAT INDEX IN FAHRENHEIT
WCI    - WIND CHILL INDEX IN FAHRENHEIT
TC     - TEMPERATURE IN CELSIUS WHICH IS ALSO KNOWN AS
         TEMPERATURE IN CENTIGRADE
AFB    - AIR FORCE BASE
         LUKE AFB IS LUKE AIR FORCE BASE
         DAVIS-MONTHAN IS DAVIS-MONTHAN AIR FORCE BASE
NAS    - NAVAL AIR STATION
         EL CENTRO NAS IS EL CENTRO NAVAL AIR STATION
N/A    - NOT AVAILABLE




USA.gov is the U.S. government's official web portal to all federal, state and local government web resources and services.